Barooga Real Estate, NSW, 3644 Berrigan

Thinking about buying in Barooga? Now could not be a better time, with a whopping 1366 properties either residential or commercial there's certainly plenty to choose from.

The average property price for this area is $624,000 with prices in this suburb ranging from $76,000 to $1,620,000.

Distance to the coast is 218 Km.

Barooga Real Estate Market Outlook

In Barooga there has been a history of lower than average prices and demand, offering opportunities for investors or first home owners, especially in the context of the growth in working from home. Low average incomes in Barooga is reflected in smaller and lower quality accommodation. Over time this may change providsing long-term returns but in the short to medium term, prices are likely to be less than state averages. Low average earnings from people in Barooga leads to lower quality housing which also negatively impacts the provision of facilities. As a consequence this area is often seen as less desirable, with lower quality of housing and slower price growth. Low population density implies low demand and limits housing choices and price increases. Could be a good entry point for first home buyers needing to somehow get into the market. With very low industrial sector presence in Barooga the focus is on lifestyle, driving specific demand around facilities, services, and open space. Most people are employed in service sectors with a higher than average proportion being able to work from home. This may incease demand over the medium term.

About

Properties For Sale

RayWhite 30 QUICKS RD, BAROOGA, NSW, 3644 5 2 6 Under Offer
RayWhite 24 WIRUNA ST, BAROOGA, NSW, 3644 4 2 2 $625,000

Local Schools


Barooga Public School

(While the above schools are located with the suburb of Barooga there may also be nearby schools whose catchments cover this suburb)

Local Crime Rates


Average Local Climate by month


(mm)
RAIN
Min (°C)
TEMP
Max (°C)
TEMP
Min (%)
HUMIDITY
Max (%)
HUMIDITY
(m/sec)
WIND
(MJ/sq m)
SOLAR
Jan1.31633.521.775.94.227.4
Feb2.11631.728.081.33.623.4
Mar1.313.328.032.083.83.519.1
Apr1.39.723.240.390.03.014.4
May1.06.018.053.295.82.810.4
Jun1.23.714.266.496.72.68.3
Jul1.53.813.866.997.63.08.7
Aug1.33.515.257.095.63.011.8
Sept1.45.118.946.495.63.416.3
Oct1.07.624.13492.83.521.5
Nov1.411.328.026.887.43.925.0
Dec1.814.231.322.479.34.028.3

source: Australian Government Bureau of Meteorology

Recently Sold Properties / House Prices

30-05-2022 $395,000 18 KAMAROOKA ST BAROOGA 3644
23-05-2022 $255,000 21 / 45 GOLF COURSE RD BAROOGA 3644
12-05-2022 $6,789,300 87 QUICKS RD BAROOGA 3644
12-05-2022 $6,789,300 2799 MULWALA-BAROOGA RD BAROOGA 3644
22-04-2022 $390,000 1 ISABEL AVE BAROOGA 3644
22-04-2022 $790,000 8 RIVER VIEW CT BAROOGA 3644
21-04-2022 $945,000 7 FRANKS RD BAROOGA 3644
14-04-2022 $260,000 11 FRANKS RD BAROOGA 3644
12-04-2022 $100,000 2 BEATRICE CT BAROOGA 3644
12-04-2022 $250,000 4 / 82 VERMONT ST BAROOGA 3644
28-03-2022 $625,000 2 GYPSIE CRES BAROOGA 3644
23-03-2022 $440,000 3 RUSSELL CT BAROOGA 3644
08-03-2022 $430,000 36 WIRUNA ST BAROOGA 3644
08-03-2022 $550,000 11 VICTORIA AVE BAROOGA 3644
07-03-2022 $310,000 20 / 45 GOLF COURSE RD BAROOGA 3644
02-03-2022 $650,000 37 VERMONT ST BAROOGA 3644
02-03-2022 $650,000 37 VERMONT ST BAROOGA 3644
02-03-2022 $650,000 39 VERMONT ST BAROOGA 3644
02-03-2022 $650,000 41 VERMONT ST BAROOGA 3644
02-03-2022 $650,000 43 VERMONT ST BAROOGA 3644
01-03-2022 $710,000 10 IVIE AVE BAROOGA 3644
18-02-2022 $510,000 66 COLLIE ST BAROOGA 3644
11-02-2022 $1,600,000 183 GOLF COURSE RD BAROOGA 3644
02-02-2022 $281,500 22 / 45 GOLF COURSE RD BAROOGA 3644
28-01-2022 $560,000 12 VICTORIA AVE BAROOGA 3644
28-01-2022 $456,000 1 ORANGE GR BAROOGA 3644
20-01-2022 $551,000 9 IVIE AVE BAROOGA 3644
17-12-2021 $390,000 1 KATHERINE CT BAROOGA 3644
17-12-2021 $540,000 6 MAVIS STEWARD DR BAROOGA 3644
16-12-2021 $400,000 49 COLLIE ST BAROOGA 3644
10-12-2021 $350,000 26 COLLIE ST BAROOGA 3644
07-12-2021 $525,000 1 RUSSELL CT BAROOGA 3644
02-12-2021 $385,000 8 STILLARD CT BAROOGA 3644
19-11-2021 $332,000 46 COLLIE ST BAROOGA 3644
19-11-2021 $730,000 106 SNELL RD BAROOGA 3644
12-11-2021 $80,000 7 BEATRICE CT BAROOGA 3644
09-11-2021 $280,000 40 BANKER ST BAROOGA 3644
01-11-2021 $128,000 10 BEATRICE CT BAROOGA 3644
01-11-2021 $140,000 7 IVIE AVE BAROOGA 3644
01-11-2021 $128,000 10 BEATRICE CT BAROOGA 3644
01-11-2021 $140,000 7 IVIE AVE BAROOGA 3644
25-10-2021 $360,000 17 HAY ST BAROOGA 3644
18-10-2021 $375,000 35 HUGHES ST BAROOGA 3644
15-10-2021 $1,485,470 36 BERRIGAN RD BAROOGA 3644
11-10-2021 $330,000 34 HUGHES ST BAROOGA 3644
23-09-2021 $975,000 3425 BAROOGA-TOCUMWAL RD BAROOGA 3644
10-09-2021 $350,000 15 ARRAMAGONG ST BAROOGA 3644
03-09-2021 $395,000 6 ARRAMAGONG ST BAROOGA 3644
02-09-2021 $226,200 2 / 30 WIRUNA ST BAROOGA 3644
20-08-2021 $118,000 12 BEATRICE CT BAROOGA 3644

Internet Speed

  • Fibre to the Curb
  • Fibre to the Node
  • Fixed Wireless
  • Satellite

Residz covers 12m+ Australian properties and brings together a wealth of data to give you a better understanding of an area. From crime and schools to bush fire, flood risk and more. Begin your search for properties for sale or learn more about where you currently reside. Residz is an exciting next-generation Real Estate platform getting better by the day!